Main page
METAR-TAF:

METAR-TAF

Airports :

Gonabad, Iran

latitude: 34-22-51N, longitude: 58-38-23E, elevation: 1100 m

Current weather observation

The report was made 7 hours and 53 minutes ago, at 17:00 UTC
Calm wind
Temperature 12°C
Humidity 50%
Pressure 1016 hPa
Visibility: 8000 m
Scattered clouds at a height of 3000 ft
Overcast at a height of 17000 ft

METAR: OIMD 201700Z 00000KT 8000 SCT030 OVC170 12/02 Q1016

Time: 04:23 (00:53 UTC)


TAF: missing

Weather observations and forecasts of more than 4000 airports (METAR and TAF reports).

The available stations are represented by yellow and red dots on the map.

Hover mouse over dot to see the name of the station.

Then click to see weather observations and forecasts.

To change the map : click on the green buttons with a black cross to zoom in, on the green button with a dash to zoom out, or on the green arrows for adjacent maps.


METAR-TAF: